Temp
11 11 10 10 9 9 9 9 9 9 9 8 8 7 7 7 7 7 6 7 7 6 7 7 7 6 6 6 6 6 6 6 6 6 6 7 6 6 6 6 6 6 6
12 11 10 9 9 9 9 9 9 9 8 8 7 7 7 7 6 6 6 6 7 7 6 6 6 6 6 6 6 6 6 6 6 6 6 6 6 6 6 6 6 6 6
12 11 9 9 9 9 9 9 8 8 8 8 7 7 6 6 6 6 6 6 6 6 6 6 6 6 6 6 6 6 6 6 6 6 6 6 6 6 5 6 6 6 6
11 10 9 9 9 9 8 8 8 8 8 7 7 7 6 6 6 6 6 6 6 6 5 6 6 5 5 5 5 5 5 5 5 5 5 5 5 5 5 5 6 6 6
10 9 9 9 9 9 8 8 8 8 7 7 6 6 6 6 6 5 5 6 5 5 5 5 5 5 5 5 5 5 5 5 5 5 5 5 5 5 5 5 5 5 5
10 9 9 9 8 8 8 8 8 8 7 7 6 6 6 5 5 6 5 5 5 4 5 5 4 4 5 5 5 4 4 4 5 4 4 5 5 5 5 5 5 5 6
9 9 9 8 8 8 8 8 8 8 7 7 6 6 5 5 5 5 5 4 5 4 4 4 4 4 4 4 4 4 4 4 4 4 4 4 5 5 4 5 6 6 5
9 9 9 8 8 8 8 8 8 7 7 6 6 5 5 5 5 5 4 4 4 5 4 3 4 4 4 4 3 4 4 4 3 5 4 5 5 5 5 5 6 6 6
9 9 8 8 8 8 8 8 8 7 7 6 6 6 5 5 5 4 4 4 4 4 4 3 3 4 3 3 4 3 4 4 3 4 3 4 4 4 5 5 5 5 5
9 9 9 8 8 8 8 8 7 7 7 6 6 6 6 5 5 4 4 4 4 4 3 3 3 3 3 3 3 3 3 3 3 3 4 5 4 5 5 5 5 5 5
9 9 9 8 8 8 8 8 7 7 7 6 6 6 5 5 5 4 4 4 4 3 3 3 3 3 3 2 2 2 3 2 3 2 4 4 4 5 5 5 5 5 5
9 9 8 8 8 8 8 8 7 7 7 7 6 6 5 5 4 4 4 4 4 3 3 3 3 3 2 2 2 2 2 3 2 2 4 4 4 4 4 4 4 5 4
9 9 8 8 8 8 8 8 7 7 7 7 6 6 5 4 4 4 4 4 4 4 4 4 4 3 2 2 2 1 2 3 2 2 4 4 4 4 4 4 4 4 4
9 9 8 8 8 8 7 8 7 7 7 7 7 6 6 5 5 4 4 4 4 4 4 4 4 3 3 2 2 2 2 1 1 2 4 4 4 4 4 4 4 4 4
8 9 8 8 8 8 7 7 7 7 7 7 7 7 6 5 5 5 4 4 4 4 4 4 3 3 2 2 1 2 2 1 2 3 4 4 4 4 4 4 4 4 4
7 8 9 8 8 8 7 7 7 7 7 7 7 7 7 6 5 5 5 4 4 4 4 3 3 2 2 1 1 2 1 1 1 4 4 4 4 4 4 4 4 4 3
8 7 9 8 8 8 7 7 7 6 7 6 6 6 7 6 6 6 5 4 4 4 3 3 3 2 1 3 2 1 1 1 1 4 4 4 4 4 4 3 4 3 3
8 7 8 9 8 8 7 7 7 6 6 6 6 6 6 6 6 5 5 4 3 3 3 3 3 2 3 1 2 2 1 2 2 4 3 3 4 3 3 4 4 3 3
8 7 6 9 8 8 7 7 7 7 6 6 6 6 6 6 5 5 5 4 3 3 3 3 3 2 2 1 2 2 1 1 2 3 3 3 3 4 3 3 3 3 3
7 6 6 8 8 8 8 7 7 7 6 6 6 6 6 6 5 4 4 3 3 3 2 3 2 2 2 1 2 2 1 -0 2 3 2 3 3 3 3 3 3 3 3
6 6 8 8 8 8 8 8 7 7 6 6 6 6 6 6 5 4 4 3 2 2 3 3 2 2 2 1 2 1 -0 1 2 3 2 2 3 3 3 3 3 3 3
6 7 8 8 8 8 8 8 7 7 6 6 6 6 6 6 5 4 4 3 2 2 2 3 1 2 1 2 2 1 -0 1 0 2 2 1 2 3 3 3 3 3 2
6 6 7 8 8 8 8 8 8 7 7 7 6 6 6 6 5 3 3 3 3 2 2 2 2 1 1 1 1 1 1 1 1 0 1 2 1 2 2 2 3 2 2
5 5 6 7 7 8 8 8 8 8 7 6 6 6 6 6 5 4 4 3 2 2 1 2 1 1 2 1 1 -0 -0 -0 -1 1 2 2 2 2 2 2 2 2 2
5 5 5 6 7 7 8 8 8 8 7 7 6 6 6 6 5 5 3 3 2 2 1 1 2 2 1 1 1 0 0 1 -0 -1 1 2 2 2 1 1 1 2 2
4 5 5 6 7 7 7 8 8 8 7 7 6 6 6 6 5 5 4 3 2 2 2 1 1 0 0 0 0 0 0 1 1 -0 1 2 1 1 1 0 1 0 1
Height
3138 3136 3135 3136 3137 3137 3138 3138 3139 3139 3140 3140 3140 3141 3142 3142 3144 3145 3146 3147 3148 3149 3150 3150 3151 3152 3154 3155 3155 3156 3158 3159 3159 3160 3162 3162 3163 3164 3165 3165 3166 3168 3169
3136 3134 3133 3135 3135 3136 3136 3137 3137 3138 3138 3139 3139 3140 3140 3141 3143 3144 3145 3147 3147 3148 3149 3150 3151 3151 3153 3154 3156 3157 3158 3159 3160 3161 3162 3162 3163 3165 3166 3166 3167 3169 3170
3134 3132 3132 3133 3134 3134 3134 3134 3135 3135 3136 3137 3138 3138 3139 3140 3142 3143 3144 3145 3146 3148 3148 3149 3150 3151 3152 3153 3154 3156 3158 3159 3160 3161 3161 3162 3163 3165 3166 3168 3168 3170 3171
3133 3132 3132 3132 3132 3131 3132 3132 3133 3134 3134 3135 3136 3137 3138 3139 3141 3142 3142 3144 3146 3146 3147 3148 3150 3150 3152 3153 3154 3155 3157 3158 3159 3160 3161 3162 3163 3165 3166 3168 3169 3171 3172
3131 3130 3131 3129 3130 3130 3130 3131 3132 3132 3133 3133 3134 3136 3137 3138 3139 3139 3141 3142 3144 3146 3146 3147 3148 3150 3152 3153 3154 3155 3157 3158 3159 3160 3161 3162 3164 3165 3167 3168 3168 3170 3171
3129 3129 3128 3128 3128 3129 3129 3129 3130 3130 3131 3132 3133 3134 3135 3136 3137 3139 3141 3142 3143 3145 3146 3147 3147 3149 3150 3151 3153 3155 3157 3158 3159 3160 3161 3162 3163 3165 3165 3167 3167 3169 3170
3128 3128 3127 3127 3127 3128 3127 3128 3128 3129 3129 3129 3131 3132 3133 3134 3136 3137 3139 3141 3142 3143 3145 3147 3147 3147 3149 3150 3153 3155 3156 3157 3158 3158 3159 3160 3162 3163 3164 3165 3166 3168 3169
3126 3126 3126 3126 3126 3126 3126 3126 3126 3127 3127 3127 3128 3130 3130 3132 3134 3135 3136 3138 3140 3141 3141 3143 3144 3143 3147 3148 3150 3153 3155 3157 3158 3156 3156 3157 3160 3161 3163 3164 3165 3167 3168
3124 3124 3125 3125 3125 3125 3125 3124 3124 3125 3125 3125 3125 3127 3128 3130 3131 3132 3134 3136 3137 3139 3139 3138 3141 3140 3142 3144 3147 3150 3153 3156 3157 3153 3153 3155 3158 3160 3161 3163 3165 3166 3168
3121 3122 3123 3123 3123 3123 3123 3123 3122 3122 3122 3122 3122 3123 3125 3126 3128 3129 3131 3133 3134 3135 3136 3136 3136 3136 3134 3138 3144 3147 3149 3152 3152 3151 3151 3155 3156 3158 3160 3162 3164 3166 3168
3118 3119 3120 3121 3121 3121 3121 3121 3120 3120 3120 3119 3119 3119 3120 3121 3123 3124 3127 3129 3130 3131 3132 3133 3132 3131 3130 3134 3137 3142 3146 3148 3150 3147 3150 3154 3154 3156 3159 3161 3163 3165 3167
3114 3116 3117 3118 3118 3118 3118 3118 3118 3118 3117 3116 3115 3114 3116 3117 3120 3121 3123 3125 3126 3126 3127 3128 3127 3128 3129 3129 3129 3135 3141 3143 3146 3147 3148 3153 3153 3155 3157 3160 3162 3165 3166
3111 3111 3113 3114 3114 3115 3115 3115 3115 3114 3114 3113 3112 3111 3111 3112 3115 3116 3118 3120 3120 3122 3122 3122 3123 3123 3125 3123 3124 3132 3137 3141 3143 3144 3146 3149 3152 3153 3156 3158 3161 3163 3164
3106 3107 3109 3110 3111 3111 3111 3112 3112 3112 3111 3110 3109 3108 3108 3109 3110 3112 3113 3115 3116 3117 3118 3117 3119 3120 3118 3121 3124 3131 3134 3139 3138 3139 3143 3146 3150 3152 3154 3156 3159 3161 3163
3103 3103 3105 3105 3107 3108 3109 3109 3109 3109 3109 3108 3107 3105 3105 3107 3107 3108 3109 3110 3111 3112 3113 3113 3115 3116 3114 3114 3119 3127 3131 3137 3135 3138 3141 3143 3147 3149 3152 3154 3157 3160 3162
3100 3099 3100 3102 3103 3104 3106 3106 3106 3106 3105 3105 3104 3103 3102 3103 3104 3104 3104 3105 3106 3107 3108 3109 3111 3113 3113 3113 3115 3124 3128 3133 3129 3135 3138 3141 3144 3147 3150 3152 3155 3157 3160
3095 3095 3094 3097 3099 3100 3102 3102 3102 3101 3102 3102 3101 3100 3099 3099 3099 3100 3100 3101 3102 3102 3103 3105 3106 3108 3108 3102 3115 3121 3126 3128 3127 3132 3135 3138 3142 3144 3147 3150 3153 3155 3158
3090 3091 3087 3091 3094 3095 3096 3098 3098 3097 3097 3098 3096 3096 3095 3095 3095 3095 3096 3096 3097 3098 3099 3100 3101 3103 3102 3106 3111 3117 3120 3124 3126 3129 3133 3135 3138 3142 3145 3147 3150 3153 3155
3084 3084 3081 3085 3088 3090 3091 3093 3094 3093 3093 3093 3092 3092 3091 3090 3090 3090 3091 3092 3092 3093 3094 3095 3095 3098 3099 3103 3109 3112 3116 3121 3124 3127 3129 3133 3136 3140 3142 3145 3148 3150 3152
3075 3076 3075 3078 3082 3084 3086 3087 3088 3089 3089 3089 3088 3088 3086 3086 3085 3085 3085 3086 3087 3088 3089 3089 3088 3090 3093 3099 3106 3109 3113 3119 3120 3124 3127 3130 3134 3136 3139 3142 3144 3147 3149
3065 3065 3067 3070 3075 3078 3082 3082 3083 3085 3085 3085 3085 3083 3082 3081 3080 3080 3080 3081 3082 3084 3085 3082 3082 3084 3089 3096 3100 3104 3110 3114 3116 3121 3125 3127 3130 3133 3135 3139 3141 3143 3147
3056 3056 3060 3063 3065 3071 3075 3077 3078 3080 3081 3080 3080 3079 3078 3077 3076 3075 3074 3076 3077 3079 3080 3080 3077 3080 3085 3090 3093 3100 3104 3109 3113 3116 3120 3125 3127 3131 3133 3135 3138 3139 3142
3049 3049 3051 3055 3059 3062 3068 3070 3072 3074 3076 3076 3076 3075 3074 3073 3071 3071 3070 3071 3072 3074 3076 3077 3077 3078 3082 3086 3092 3096 3100 3104 3110 3114 3119 3123 3125 3127 3130 3132 3134 3136 3138
3041 3043 3042 3047 3050 3053 3060 3062 3066 3068 3071 3072 3071 3071 3069 3068 3067 3066 3066 3066 3068 3070 3072 3074 3074 3075 3077 3082 3088 3092 3098 3103 3106 3112 3115 3118 3121 3124 3125 3127 3130 3132 3134
3031 3035 3035 3038 3042 3045 3051 3055 3059 3062 3065 3066 3066 3067 3065 3064 3063 3062 3062 3061 3063 3066 3068 3071 3072 3074 3077 3081 3086 3090 3095 3099 3102 3107 3110 3114 3117 3119 3121 3124 3125 3127 3129
3021 3023 3027 3027 3033 3037 3042 3048 3051 3056 3059 3061 3061 3062 3060 3060 3058 3058 3057 3057 3059 3061 3065 3068 3071 3074 3076 3080 3084 3088 3091 3096 3099 3103 3106 3108 3111 3114 3117 3118 3120 3121 3124
Wind_Speed
10 7 8 10 10 11 9 9 8 9 11 9 8 6 5 5 4 4 4 5 5 3 2 3 5 7 8 9 9 9 9 9 8 7 7 6 8 10 10 9 8 7 7
13 8 6 10 10 10 10 10 12 12 11 11 9 8 7 6 6 6 6 6 5 6 4 4 5 7 8 8 9 8 8 8 8 9 8 9 10 10 8 8 8 8 6
10 8 6 10 12 13 16 18 13 12 12 12 10 9 8 8 8 7 7 8 7 7 6 5 6 7 8 8 7 7 8 8 8 9 10 11 12 10 9 9 7 6 5
7 6 8 11 12 10 8 9 10 11 11 11 11 10 10 9 10 10 11 11 8 8 7 8 8 7 7 8 8 8 8 9 10 10 11 12 12 10 10 7 5 6 6
5 5 8 5 3 3 4 5 6 8 9 10 11 11 11 11 12 12 13 11 12 10 9 8 8 7 7 9 9 8 10 9 9 11 13 12 11 10 8 8 9 8 6
4 6 6 3 2 2 2 4 5 6 7 9 10 12 13 14 15 15 16 13 13 11 10 11 10 10 9 10 10 10 11 9 9 12 14 13 11 10 9 9 8 10 9
4 6 2 4 4 3 2 3 4 6 7 7 9 13 14 17 17 16 11 11 17 10 15 18 16 11 13 12 11 13 12 10 11 8 15 17 14 13 11 10 7 8 9
5 6 4 4 6 5 4 4 4 6 8 9 9 13 16 18 18 23 20 12 18 19 17 19 20 14 18 17 16 15 15 12 9 8 20 17 17 16 13 10 8 8 9
6 6 6 4 4 5 5 5 5 6 8 10 11 12 17 17 17 16 16 15 18 24 15 18 20 22 20 20 19 18 17 15 16 21 21 15 13 14 13 12 10 9 10
9 8 7 7 6 7 7 7 8 7 9 11 13 14 17 18 20 21 21 20 20 21 17 20 23 27 18 21 22 22 19 18 21 14 23 15 15 15 14 12 11 10 11
12 12 10 10 11 10 10 9 10 9 10 12 14 16 19 22 22 24 24 23 21 21 19 20 25 28 26 17 29 24 21 20 20 24 24 17 17 17 15 14 12 12 14
15 15 14 13 13 15 12 11 12 12 11 12 14 15 19 23 23 25 26 24 23 22 21 23 27 27 25 26 26 28 24 24 21 26 22 19 18 17 16 14 13 12 12
20 20 17 16 17 17 16 14 14 14 13 12 12 13 16 20 23 23 24 23 24 23 24 24 24 26 23 24 32 29 24 22 22 27 24 19 19 19 17 15 14 14 13
26 23 20 20 19 19 19 14 16 15 14 13 13 11 13 18 19 22 23 23 25 25 25 25 20 23 27 20 30 28 26 22 24 28 22 21 21 18 16 15 16 16 15
28 29 23 23 21 22 21 18 19 17 15 14 15 12 11 16 18 23 26 26 26 24 25 23 24 23 25 27 32 28 27 21 25 28 24 21 21 20 18 18 17 16 17
28 32 29 27 22 23 23 21 21 18 16 13 15 15 13 15 19 22 25 26 24 23 23 23 25 21 22 27 29 29 28 27 34 26 22 21 21 21 19 18 18 18 17
30 29 33 27 23 24 23 22 22 19 16 15 15 16 15 17 17 21 24 24 23 23 24 24 26 28 28 23 31 30 28 31 29 28 23 21 21 21 20 19 20 21 21
27 27 35 32 26 25 24 22 22 21 18 16 16 18 16 17 19 22 25 24 23 23 25 24 26 23 29 26 31 32 31 28 29 26 23 22 21 22 20 22 21 22 20
30 29 34 34 28 26 25 23 22 21 18 19 18 19 17 17 20 22 25 25 24 26 27 27 30 27 36 33 34 31 32 27 27 25 24 19 20 21 22 22 22 23 21
31 31 36 38 33 29 27 26 25 20 17 18 18 19 19 18 19 22 24 25 25 24 25 25 26 25 35 36 36 32 31 25 27 27 23 23 22 21 21 22 23 23 23
33 36 44 41 38 33 30 28 26 18 18 18 18 19 21 18 19 20 23 22 25 24 19 21 23 26 31 34 42 38 27 29 28 27 25 23 22 22 22 23 25 24 24
31 44 45 44 42 35 31 30 29 22 21 20 20 19 20 19 19 19 21 23 27 24 20 18 16 28 34 45 47 40 34 30 28 31 27 24 23 22 23 25 27 26 26
34 38 49 46 45 42 34 33 32 27 26 23 20 20 20 19 18 15 19 20 20 23 20 15 20 25 37 47 38 41 37 35 27 24 26 24 24 23 23 25 27 26 26
36 35 43 47 47 45 40 36 32 31 26 21 22 20 20 19 17 19 20 17 23 22 19 12 11 23 30 46 38 43 36 36 34 30 29 24 24 25 25 26 28 27 28
34 35 40 46 48 50 46 40 35 33 29 26 24 20 19 20 18 20 21 20 26 25 25 25 14 10 32 37 31 29 25 22 28 28 30 30 32 31 28 26 26 26 29
29 36 36 45 48 48 45 40 37 34 32 28 23 22 20 19 19 20 22 21 23 26 26 24 25 21 20 31 24 24 25 23 20 32 31 30 28 27 26 28 28 29 28
Wind_Direction
296 302 262 249 242 235 230 238 243 238 240 236 240 227 213 221 234 265 295 311 326 331 283 236 218 214 219 227 224 223 226 217 209 205 201 196 183 177 174 167 161 162 154
308 311 274 247 237 228 247 258 264 258 248 240 234 223 216 224 233 251 275 276 308 307 287 240 226 221 222 227 234 230 218 217 219 213 201 189 182 181 178 168 164 164 168
307 317 264 242 243 257 263 271 252 248 244 238 231 221 221 227 234 247 262 269 289 283 278 259 240 228 224 220 223 226 227 218 208 201 199 196 188 184 178 166 164 182 186
323 315 277 281 275 268 256 248 239 236 236 232 230 224 225 229 243 240 248 255 252 252 248 255 242 232 227 224 219 224 227 213 205 201 196 190 189 184 180 186 209 220 222
326 300 297 295 275 279 254 242 240 243 241 236 231 224 228 233 240 238 240 250 243 243 229 229 217 231 243 234 226 214 197 193 196 196 189 195 190 192 207 226 237 238 233
307 297 322 12 341 319 283 261 254 258 258 252 241 234 231 235 234 245 253 254 250 249 245 240 229 232 238 233 224 203 201 203 191 198 197 201 210 224 225 237 241 227 223
285 295 315 14 348 319 295 276 275 273 265 255 251 245 240 238 240 246 247 281 259 232 303 273 242 259 252 229 213 211 211 215 219 202 224 220 220 232 232 243 226 218 208
266 277 278 336 342 333 297 260 260 269 268 257 253 248 242 243 234 239 230 287 248 244 291 263 237 279 263 244 212 213 215 208 187 229 235 222 226 230 230 225 208 205 194
256 257 266 307 349 337 315 294 281 276 262 255 251 253 251 250 251 243 241 253 247 257 271 272 242 268 263 249 224 208 213 219 188 230 242 237 221 220 220 214 208 199 196
254 242 261 278 303 310 312 295 292 285 271 256 250 253 253 248 247 245 249 254 254 258 265 231 256 257 250 226 224 210 218 218 217 220 241 228 217 218 214 208 203 196 192
248 242 249 271 282 293 300 291 291 291 280 270 259 256 248 246 245 246 247 254 253 261 259 256 251 251 255 244 221 207 215 219 222 227 234 225 218 216 210 209 204 200 197
235 238 242 253 270 282 291 291 286 291 288 281 273 272 255 247 244 245 251 254 253 255 252 250 252 254 270 266 253 199 210 217 205 208 234 223 218 212 208 210 204 206 188
231 233 239 247 260 271 280 293 286 293 292 288 280 273 265 250 243 246 249 251 254 252 252 258 260 269 263 278 199 194 206 209 213 225 226 219 219 210 207 208 204 201 190
231 234 235 242 251 261 271 281 282 287 293 286 287 266 262 252 244 243 248 251 252 254 256 260 265 266 263 246 187 199 203 198 220 231 221 219 220 213 209 208 206 200 194
233 238 238 240 244 252 260 272 278 280 287 277 280 278 257 251 247 248 249 250 249 246 251 258 253 268 284 220 191 198 202 194 235 228 219 214 215 215 209 209 205 204 202
234 244 244 245 244 249 254 263 273 273 281 277 275 275 273 258 251 252 247 247 249 253 253 254 252 259 244 190 193 196 200 199 228 227 214 216 213 217 209 209 208 204 203
235 239 247 242 243 245 247 256 268 272 274 277 276 275 270 264 261 258 255 250 248 250 253 247 260 258 224 203 195 198 196 216 227 224 215 215 216 216 213 211 209 208 204
237 234 243 249 238 238 241 249 262 267 272 277 280 278 270 267 263 258 254 250 250 249 249 260 257 260 219 219 201 202 208 219 223 226 218 216 217 220 221 215 211 211 211
232 234 238 243 241 237 237 241 254 262 266 276 283 280 274 275 267 262 256 250 247 248 252 255 263 251 220 212 204 208 217 215 222 219 231 218 223 222 219 218 214 215 210
230 231 235 243 243 239 236 238 247 257 262 271 280 283 278 280 274 267 261 250 248 248 254 273 257 232 213 212 207 208 213 204 225 222 221 232 223 220 221 220 219 221 219
224 231 239 241 244 240 241 240 247 254 256 265 274 283 282 283 279 271 255 248 245 246 248 278 242 222 195 204 209 205 209 217 225 223 222 231 227 224 223 224 223 221 229
231 232 234 238 240 242 241 240 241 246 255 265 270 282 282 284 281 267 251 246 245 239 240 257 236 210 200 196 198 209 202 210 218 222 220 223 237 230 228 229 230 229 230
236 240 233 235 240 242 239 240 241 240 251 263 271 278 281 283 283 262 252 247 244 233 232 239 218 225 202 207 211 211 208 217 214 218 223 231 236 241 235 234 237 236 237
236 237 241 234 236 240 239 242 243 243 248 255 265 274 281 282 281 272 265 253 237 231 244 219 204 230 211 212 221 207 213 222 221 225 235 238 246 245 244 245 241 240 241
233 235 241 236 234 238 239 242 241 239 238 249 262 271 275 277 280 270 262 245 226 237 229 242 217 200 199 216 216 222 231 249 232 225 229 231 240 249 249 246 253 250 245
239 227 236 238 233 237 237 235 238 232 232 244 259 267 270 274 277 273 264 248 235 226 226 220 228 211 199 203 204 214 217 229 218 220 236 238 241 249 249 250 249 252 248